{"data":{"norad_id":57225,"intl_designator":"2023-094H","name":"STARLINK-6294","alt_names":[],"object_type":"PAYLOAD","status":"ACTIVE","operator":null,"country":"US","launch_date":"2023-07-07","launch_site_code":"AFWTR","launch_vehicle":null,"mission":null,"orbit_class":"UNKNOWN","rcs_meters":null,"size_class":null,"mass_kg":null,"dimensions":null,"purposes":["comms"],"wikipedia_slug":null,"has_3d_model":false,"image_url":null,"decayed_at":null,"tle_current":{"epoch":"2026-05-24T21:12:23.255136Z","epoch_age_seconds":78480,"freshness":"FRESH","line1":"1 57225U 23094H   26144.88360249  .00000333  00000+0  21646-4 0  9997","line2":"2 57225  43.0056 320.8194 0001595 271.3941  88.6728 15.27577552158767","mean_motion":15.27577552,"eccentricity":0.0001595,"inclination_deg":43.0056,"raan_deg":320.8194,"arg_perigee_deg":271.3941,"mean_anomaly_deg":88.6728,"bstar":2.1646e-5,"rev_number":15876,"period_min":94.266899779632,"perigee_km":481.96206589062,"apogee_km":484.15078659359,"semimajor_km":6861.1934262421,"source":"CELESTRAK","updated_at":"2026-05-25T13:38:18.253106Z"}}}